SCP
0 0 0 0 0 0 0 0 0 0 0 0 0 0 0 0 0 0 0 0 0 0 0 0 0 0 0 0 0 0 0 0 0 0 0 0 0 0 0 0 0 0 0
0 0 0 0 0 0 0 0 0 0 0 0 0 0 0 0 0 0 0 0 0 0 0 0 0 0 0 0 0 0 0 0 0 0 0 0 0 0 0 0 0 0 0
0 0 0 0 0 0 0 0 0 0 0 0 0 0 0 0 0 0 0 0 0 0 0 0 0 0 0 0 0 0 0 0 0 0 0 0 0 0 0 0 0 0 0
0 0 0 0 0 0 0 0 0 0 0 0 0 0 0 0 0 0 0 0 0 0 0 0 0 0 0 0 0 0 0 0 0 0 0 0 0 0 0 0 0 0 0
0 0 0 0 0 0 0 0 0 0 0 0 0 0 0 0 0 0 0 0 0 0 0 0 0 0 0 0 0 0 0 0 0 0 0 0 0 0 0 0 0 0 0
0 0 0 0 0 0 0 0 0 0 0 0 0 0 0 0 0 0 0 0 0 0 0 0 0 0 0 0 0 0 0 0 0 0 0 0 0 0 0 0 0 0 0
0 0 0 0 0 0 0 0 0 0 0 0 0 0 0 0 0 0 0 0 0 0 0 0 0 0 0 0 0 0 0 0 0 0 0 0 0 0 0 0 0 0 0
0 0 0 0 0 0 0 0 0 0 0 0 0 0 0 0 0 0 0 0 0 0 0 0 0 0 0 0 0 0 0 0 0 0 0 0 0 0 0 0 0 0 0
0 0 0 0 0 0 0 0 0 0 0 0 0 0 0 0 0 0 0 0 0 0 0 0 0 0 0 0 0 0 0 0 0 0 0 0 0 0 0 0 0 0 0
0 0 0 0 0 0 0 0 0 0 0 0 0 0 0 0 0 0 0 0 0 0 0 0 0 0 0 0 0 0 0 0 0 0 0 0 0 0 0 0 0 0 0
0 0 0 0 0 0 0 0 0 0 0 0 0 0 0 0 0 0 0 0 0 0 0 0 0 0 0 0 0 0 0 0 0 0 0 0 0 0 0 0 0 0 0
0 0 0 0 0 0 0 0 0 0 0 0 0 0 0 0 0 0 0 0 0 0 0 0 0 0 0 0 0 0 0 0 0 0 0 0 0 0 0 0 0 0 0
0 0 0 0 0 0 0 0 0 0 0 0 0 0 0 0 0 0 0 0 0 0 0 0 0 0 0 0 0 0 0 0 0 0 0 0 0 0 0 0 0 0 0
0 0 0 0 0 0 0 0 0 0 0 0 0 0 0 0 0 0 0 0 0 0 0 0 0 0 0 0 0 0 0 0 0 0 0 0 0 0 0 0 0 0 0
0 0 0 0 0 0 0 0 0 0 0 0 0 0 0 0 0 0 0 0 0 0 0 0 0 0 0 0 0 0 0 0 0 0 0 0 0 0 0 0 0 0 0
0 0 0 0 0 0 0 0 0 0 0 0 0 0 0 0 0 0 0 0 0 0 0 0 0 0 0 0 0 0 0 0 0 0 0 0 0 0 0 0 0 0 0
0 0 0 0 0 0 0 0 0 0 0 0 0 0 0 0 0 0 0 0 0 0 0 0 0 0 0 0 0 0 0 0 0 0 0 0 0 0 0 0 0 0 0
0 0 0 0 0 0 0 0 0 0 0 0 0 0 0 0 0 0 0 0 0 0 0 0 0 0 0 0 0 0 0 0 0 0 0 0 0 0 0 0 0 0 0
0 0 0 0 0 0 0 0 0 0 0 0 0 0 0 0 0 0 0 0 0 0 0 0 0 0 0 0 0 0 0 0 0 0 0 0 0 0 0 0 0 0 0
0 0 0 0 0 0 0 0 0 0 0 0 0 0 0 0 0 0 0 0 0 0 0 0 0 0 0 0 0 0 0 0 0 0 0 0 0 0 0 0 0 0 0
0 0 0 0 0 0 0 0 0 0 0 0 0 0 0 0 0 0 0 0 0 0 0 0 0 0 0 0 0 0 0 0 0 0 0 0 0 0 0 0 0 0 0
0 0 0 0 0 0 0 0 0 0 0 0 0 0 0 0 0 0 0 0 0 0 0 0 0 0 0 0 0 0 0 0 0 0 0 0 0 0 0 0 0 0 0
0 0 0 0 0 0 0 0 0 0 0 0 0 0 0 0 0 0 0 0 0 0 0 0 0 0 0 0 0 0 0 0 0 0 0 0 0 0 0 0 0 0 0
0 0 0 0 0 0 0 0 0 0 0 0 0 0 0 0 0 0 0 0 0 0 0 0 0 0 0 0 0 0 0 0 0 0 0 0 0 0 0 0 0 0 0
0 0 0 0 0 0 0 0 0 0 0 0 0 0 0 0 0 0 0 0 0 0 0 0 0 0 0 0 0 0 0 0 0 0 0 0 0 0 0 0 0 0 0
0 0 0 0 0 0 0 0 0 0 0 0 0 0 0 0 0 0 0 0 0 0 0 0 0 0 0 0 0 0 0 0 0 0 0 0 0 0 0 0 0 0 0
Wind_Speed_500mb
32 30 28 29 37 46 49 53 55 56 54 50 45 43 40 38 39 41 43 46 48 42 39 40 41 40 39 38 36 32 28 26 21 15 14 16 19 25 27 26 21 17 13
32 27 22 20 22 29 40 45 50 50 49 47 43 41 39 41 43 45 46 46 43 42 43 43 44 43 39 37 33 29 25 24 18 13 13 10 13 23 30 25 14 14 12
38 32 25 21 20 23 28 35 40 42 43 42 41 41 41 44 45 47 47 46 47 49 49 47 44 42 38 36 32 28 24 20 18 14 12 8 9 16 29 31 29 24 17
36 33 30 26 23 24 26 29 33 36 37 38 39 40 42 43 46 45 49 51 51 51 51 48 43 40 37 35 32 30 25 21 18 16 16 17 14 8 7 21 34 35 28
41 38 34 30 27 26 26 28 30 32 34 37 40 42 43 46 48 49 48 49 49 47 48 44 40 37 35 34 32 31 29 26 25 22 19 18 17 20 17 10 21 28 24
40 37 33 31 29 29 29 29 30 32 35 36 38 40 42 44 44 43 44 43 44 43 42 39 37 36 34 33 33 30 28 26 25 24 22 18 12 11 14 16 23 26 19
39 36 34 32 31 30 30 29 30 31 33 35 38 39 39 41 41 40 40 39 38 38 38 36 36 35 35 34 33 31 29 27 25 24 22 22 22 23 22 24 24 21 25
36 35 34 33 32 31 30 30 30 30 33 34 35 37 37 38 38 38 38 37 37 36 37 37 38 38 39 37 36 33 31 29 27 26 25 26 25 23 23 24 21 21 18
37 36 33 31 29 28 27 26 27 28 30 32 33 35 36 36 36 38 38 38 37 38 37 38 40 41 40 39 37 36 32 31 29 28 27 25 25 25 25 28 22 21 12
35 34 30 27 24 22 21 21 23 26 28 29 31 33 34 35 36 37 35 35 35 35 37 38 37 36 35 35 35 34 32 32 29 26 24 21 23 25 27 23 22 24 26
38 33 28 23 19 16 16 18 20 23 26 28 29 30 32 33 34 33 32 32 33 30 30 31 32 32 32 32 33 33 32 30 26 22 19 19 23 23 19 21 22 20 24
38 31 25 20 16 13 13 15 17 19 23 26 27 27 30 30 30 30 27 26 24 27 26 30 32 33 33 31 31 30 28 27 23 20 17 16 16 14 15 17 18 16 19
37 30 24 20 16 15 16 17 17 18 19 23 26 26 28 30 29 28 27 25 24 24 25 27 29 29 29 30 28 27 26 24 24 24 24 23 20 16 17 16 16 16 20
34 29 24 19 16 15 13 15 18 19 19 20 23 26 28 31 30 28 27 26 25 26 26 25 25 26 29 28 26 26 26 28 29 30 31 30 28 25 25 23 23 25 27
37 31 24 20 19 17 18 18 18 18 19 22 24 23 29 31 31 30 29 29 29 27 27 26 26 27 26 25 27 28 29 31 32 33 35 34 33 32 31 32 30 32 33
35 29 26 23 21 21 25 26 25 24 23 23 25 26 26 29 32 34 33 31 32 32 33 29 28 28 29 28 31 33 35 37 40 40 38 40 40 37 37 39 38 39 39
31 27 22 17 16 18 21 23 24 24 25 24 25 26 27 28 31 34 38 37 36 38 38 36 37 35 34 33 37 39 43 46 47 46 45 45 46 44 46 44 46 47 45
30 25 21 18 17 18 18 18 18 18 21 22 23 26 28 30 32 35 37 38 41 44 45 45 46 47 45 44 46 47 52 55 54 53 52 52 51 51 49 50 52 54 51
29 23 19 16 13 12 13 12 11 13 16 18 20 24 26 28 30 33 35 36 41 44 47 50 52 55 56 54 54 57 60 63 64 62 61 59 58 56 51 54 58 60 57
24 19 15 12 8 8 7 6 8 11 14 16 17 20 23 24 26 28 30 30 34 38 41 44 48 53 57 56 58 61 65 70 72 71 70 67 65 61 58 59 59 66 63
19 16 13 9 6 4 4 5 8 11 14 15 16 17 19 20 22 23 25 25 27 31 32 36 37 41 44 47 50 55 60 66 70 74 75 76 72 66 63 63 65 67 62
18 14 10 7 3 2 3 6 9 11 13 14 15 17 18 19 20 20 21 22 24 25 26 27 28 28 31 34 36 38 45 49 56 63 65 68 68 67 65 66 68 65 62
17 11 7 5 1 2 4 6 8 10 12 13 13 15 16 18 18 19 18 18 20 21 21 22 23 24 24 26 26 26 27 30 37 44 47 48 50 52 53 58 61 61 61
14 10 8 6 4 4 7 8 9 11 13 13 14 14 14 15 17 19 19 18 17 17 18 20 20 21 21 18 19 21 24 26 30 33 37 39 43 44 45 51 56 57 58
17 12 8 6 6 7 9 11 12 13 14 15 16 15 15 16 16 18 18 16 17 17 18 18 20 22 22 21 22 24 27 30 32 35 39 46 45 44 39 36 39 48 54
17 11 6 5 5 8 10 11 13 13 14 14 15 16 16 18 18 17 17 20 19 18 16 16 16 22 23 21 21 22 24 25 26 29 33 38 34 34 36 38 37 36 37
Wind_Direction_500mb
228 228 230 232 231 227 226 224 222 221 223 227 230 238 246 255 265 274 283 288 290 288 287 288 289 290 291 290 288 284 280 276 271 271 248 244 226 210 205 202 206 228 239
207 204 204 206 209 211 214 214 216 218 221 226 233 241 249 258 267 275 281 284 283 283 284 285 286 288 288 285 280 276 273 269 262 245 230 210 217 211 206 206 218 229 255
195 192 187 181 179 184 193 200 207 212 219 227 235 244 253 263 271 278 281 280 280 281 281 281 281 282 281 278 274 268 262 259 260 242 212 221 208 207 227 228 246 226 255
189 190 188 183 178 177 181 190 201 211 220 229 238 249 259 266 271 275 278 279 279 278 278 278 277 275 273 270 266 264 258 253 246 245 230 224 210 201 211 232 223 240 269
188 189 190 191 194 195 197 201 208 218 229 239 248 256 262 268 272 276 277 278 278 276 275 274 273 269 266 264 261 259 256 252 246 238 234 233 231 225 228 247 248 253 274
180 185 191 196 201 206 211 218 225 233 241 250 256 261 266 270 273 276 277 277 277 275 271 269 266 262 260 260 261 259 256 252 249 247 241 235 225 226 235 256 275 287 287
181 189 195 199 204 209 216 224 232 239 247 254 259 264 268 270 271 273 274 275 275 273 269 266 262 259 259 260 261 259 255 250 249 250 251 251 252 249 255 265 281 293 306
184 188 193 200 207 213 221 228 237 243 251 256 261 264 264 266 270 272 272 271 271 269 269 267 263 263 262 260 258 255 252 251 252 253 256 259 260 260 259 260 268 299 264
183 190 195 201 207 213 221 229 238 246 253 257 260 263 264 267 268 267 269 271 270 269 266 266 266 265 262 256 252 251 251 251 254 259 262 262 265 262 255 252 250 257 297
180 181 180 184 191 204 219 232 244 250 255 259 262 265 266 268 269 269 269 270 268 268 270 268 266 262 256 252 249 249 249 252 256 258 260 263 264 261 252 247 249 254 260
177 175 175 177 185 201 220 236 243 249 255 259 262 266 268 266 267 268 268 269 268 265 265 266 261 255 251 249 247 247 248 250 250 248 252 259 258 255 256 248 245 247 261
175 175 177 184 196 214 231 244 253 254 258 262 262 262 265 264 265 263 261 262 263 267 266 260 259 255 250 248 246 244 245 244 237 234 238 246 254 257 252 245 243 248 262
176 179 186 194 207 227 244 255 261 265 265 265 262 260 261 263 262 260 258 258 259 264 268 268 262 253 247 245 244 244 243 236 228 231 239 249 257 260 259 250 248 256 262
183 188 193 203 221 236 246 259 265 266 269 272 268 260 258 260 263 264 263 260 258 260 261 263 263 256 251 249 248 246 240 233 235 242 250 251 255 256 259 261 262 266 270
194 198 207 224 237 246 253 260 269 276 277 272 269 268 262 261 261 262 263 265 265 259 258 259 261 259 259 259 254 246 237 241 246 248 251 255 258 260 261 264 266 267 268
200 208 222 234 248 252 253 258 266 274 278 278 273 268 266 265 261 260 259 260 264 264 259 259 262 263 261 256 249 246 248 250 252 254 258 261 262 263 265 266 264 264 266
200 206 214 215 231 250 257 260 264 270 275 274 271 268 266 265 264 263 264 264 261 263 267 265 264 262 257 251 249 252 254 255 257 260 260 261 264 265 265 266 268 267 266
199 197 207 220 241 259 265 268 272 275 275 275 275 275 273 271 268 266 265 266 268 267 265 265 265 264 260 255 255 255 257 259 259 260 262 263 265 265 266 266 266 266 267
191 201 217 235 236 251 263 272 280 282 282 282 282 281 279 276 275 273 271 269 268 267 268 268 265 264 263 260 257 256 257 259 262 263 264 265 267 268 268 266 267 268 267
190 204 209 214 217 234 258 277 291 288 290 292 291 289 286 284 281 278 276 273 273 273 270 269 268 268 267 265 261 259 260 261 263 264 266 266 266 268 268 266 265 268 269
188 192 194 195 203 232 281 303 298 302 305 306 304 300 297 295 292 290 287 284 281 280 278 276 274 273 272 269 264 261 261 262 265 267 268 269 268 265 264 264 264 265 272
180 184 179 175 189 248 308 314 309 311 313 314 314 310 308 306 303 300 296 296 294 290 287 286 287 284 280 278 275 270 266 266 266 269 271 272 273 270 262 258 260 264 266
177 170 168 157 183 313 332 328 322 321 323 324 320 316 315 315 315 312 312 310 303 299 296 295 297 296 292 287 288 285 278 274 272 275 279 280 280 280 276 264 258 259 259
167 164 147 119 80 17 7 358 349 336 332 330 323 316 318 316 317 320 324 322 311 303 301 305 306 306 306 302 294 288 284 280 278 282 283 284 282 279 278 269 264 259 254
155 147 132 109 67 36 21 9 358 348 340 336 327 327 328 326 326 326 325 320 312 306 304 301 304 302 308 309 305 301 293 286 278 278 281 284 283 282 278 280 270 265 258
149 144 134 92 55 36 29 17 8 1 355 347 340 338 337 334 333 334 324 320 314 310 305 299 288 294 299 301 307 307 303 304 302 286 273 281 284 282 273 273 275 273 269
Wind_Speed_850mb
32 30 28 29 37 46 49 53 55 56 54 50 45 43 40 38 39 41 43 46 48 42 39 40 41 40 39 38 36 32 28 26 21 15 14 16 19 25 27 26 21 17 13
32 27 22 20 22 29 40 45 50 50 49 47 43 41 39 41 43 45 46 46 43 42 43 43 44 43 39 37 33 29 25 24 18 13 13 10 13 23 30 25 14 14 12
38 32 25 21 20 23 28 35 40 42 43 42 41 41 41 44 45 47 47 46 47 49 49 47 44 42 38 36 32 28 24 20 18 14 12 8 9 16 29 31 29 24 17
36 33 30 26 23 24 26 29 33 36 37 38 39 40 42 43 46 45 49 51 51 51 51 48 43 40 37 35 32 30 25 21 18 16 16 17 14 8 7 21 34 35 28
41 38 34 30 27 26 26 28 30 32 34 37 40 42 43 46 48 49 48 49 49 47 48 44 40 37 35 34 32 31 29 26 25 22 19 18 17 20 17 10 21 28 24
40 37 33 31 29 29 29 29 30 32 35 36 38 40 42 44 44 43 44 43 44 43 42 39 37 36 34 33 33 30 28 26 25 24 22 18 12 11 14 16 23 26 19
39 36 34 32 31 30 30 29 30 31 33 35 38 39 39 41 41 40 40 39 38 38 38 36 36 35 35 34 33 31 29 27 25 24 22 22 22 23 22 24 24 21 25
36 35 34 33 32 31 30 30 30 30 33 34 35 37 37 38 38 38 38 37 37 36 37 37 38 38 39 37 36 33 31 29 27 26 25 26 25 23 23 24 21 21 18
37 36 33 31 29 28 27 26 27 28 30 32 33 35 36 36 36 38 38 38 37 38 37 38 40 41 40 39 37 36 32 31 29 28 27 25 25 25 25 28 22 21 12
35 34 30 27 24 22 21 21 23 26 28 29 31 33 34 35 36 37 35 35 35 35 37 38 37 36 35 35 35 34 32 32 29 26 24 21 23 25 27 23 22 24 26
38 33 28 23 19 16 16 18 20 23 26 28 29 30 32 33 34 33 32 32 33 30 30 31 32 32 32 32 33 33 32 30 26 22 19 19 23 23 19 21 22 20 24
38 31 25 20 16 13 13 15 17 19 23 26 27 27 30 30 30 30 27 26 24 27 26 30 32 33 33 31 31 30 28 27 23 20 17 16 16 14 15 17 18 16 19
37 30 24 20 16 15 16 17 17 18 19 23 26 26 28 30 29 28 27 25 24 24 25 27 29 29 29 30 28 27 26 24 24 24 24 23 20 16 17 16 16 16 20
34 29 24 19 16 15 13 15 18 19 19 20 23 26 28 31 30 28 27 26 25 26 26 25 25 26 29 28 26 26 26 28 29 30 31 30 28 25 25 23 23 25 27
37 31 24 20 19 17 18 18 18 18 19 22 24 23 29 31 31 30 29 29 29 27 27 26 26 27 26 25 27 28 29 31 32 33 35 34 33 32 31 32 30 32 33
35 29 26 23 21 21 25 26 25 24 23 23 25 26 26 29 32 34 33 31 32 32 33 29 28 28 29 28 31 33 35 37 40 40 38 40 40 37 37 39 38 39 39
31 27 22 17 16 18 21 23 24 24 25 24 25 26 27 28 31 34 38 37 36 38 38 36 37 35 34 33 37 39 43 46 47 46 45 45 46 44 46 44 46 47 45
30 25 21 18 17 18 18 18 18 18 21 22 23 26 28 30 32 35 37 38 41 44 45 45 46 47 45 44 46 47 52 55 54 53 52 52 51 51 49 50 52 54 51
29 23 19 16 13 12 13 12 11 13 16 18 20 24 26 28 30 33 35 36 41 44 47 50 52 55 56 54 54 57 60 63 64 62 61 59 58 56 51 54 58 60 57
24 19 15 12 8 8 7 6 8 11 14 16 17 20 23 24 26 28 30 30 34 38 41 44 48 53 57 56 58 61 65 70 72 71 70 67 65 61 58 59 59 66 63
19 16 13 9 6 4 4 5 8 11 14 15 16 17 19 20 22 23 25 25 27 31 32 36 37 41 44 47 50 55 60 66 70 74 75 76 72 66 63 63 65 67 62
18 14 10 7 3 2 3 6 9 11 13 14 15 17 18 19 20 20 21 22 24 25 26 27 28 28 31 34 36 38 45 49 56 63 65 68 68 67 65 66 68 65 62
17 11 7 5 1 2 4 6 8 10 12 13 13 15 16 18 18 19 18 18 20 21 21 22 23 24 24 26 26 26 27 30 37 44 47 48 50 52 53 58 61 61 61
14 10 8 6 4 4 7 8 9 11 13 13 14 14 14 15 17 19 19 18 17 17 18 20 20 21 21 18 19 21 24 26 30 33 37 39 43 44 45 51 56 57 58
17 12 8 6 6 7 9 11 12 13 14 15 16 15 15 16 16 18 18 16 17 17 18 18 20 22 22 21 22 24 27 30 32 35 39 46 45 44 39 36 39 48 54
17 11 6 5 5 8 10 11 13 13 14 14 15 16 16 18 18 17 17 20 19 18 16 16 16 22 23 21 21 22 24 25 26 29 33 38 34 34 36 38 37 36 37
Wind_Direction_850mb
228 228 230 232 231 227 226 224 222 221 223 227 230 238 246 255 265 274 283 288 290 288 287 288 289 290 291 290 288 284 280 276 271 271 248 244 226 210 205 202 206 228 239
207 204 204 206 209 211 214 214 216 218 221 226 233 241 249 258 267 275 281 284 283 283 284 285 286 288 288 285 280 276 273 269 262 245 230 210 217 211 206 206 218 229 255
195 192 187 181 179 184 193 200 207 212 219 227 235 244 253 263 271 278 281 280 280 281 281 281 281 282 281 278 274 268 262 259 260 242 212 221 208 207 227 228 246 226 255
189 190 188 183 178 177 181 190 201 211 220 229 238 249 259 266 271 275 278 279 279 278 278 278 277 275 273 270 266 264 258 253 246 245 230 224 210 201 211 232 223 240 269
188 189 190 191 194 195 197 201 208 218 229 239 248 256 262 268 272 276 277 278 278 276 275 274 273 269 266 264 261 259 256 252 246 238 234 233 231 225 228 247 248 253 274
180 185 191 196 201 206 211 218 225 233 241 250 256 261 266 270 273 276 277 277 277 275 271 269 266 262 260 260 261 259 256 252 249 247 241 235 225 226 235 256 275 287 287
181 189 195 199 204 209 216 224 232 239 247 254 259 264 268 270 271 273 274 275 275 273 269 266 262 259 259 260 261 259 255 250 249 250 251 251 252 249 255 265 281 293 306
184 188 193 200 207 213 221 228 237 243 251 256 261 264 264 266 270 272 272 271 271 269 269 267 263 263 262 260 258 255 252 251 252 253 256 259 260 260 259 260 268 299 264
183 190 195 201 207 213 221 229 238 246 253 257 260 263 264 267 268 267 269 271 270 269 266 266 266 265 262 256 252 251 251 251 254 259 262 262 265 262 255 252 250 257 297
180 181 180 184 191 204 219 232 244 250 255 259 262 265 266 268 269 269 269 270 268 268 270 268 266 262 256 252 249 249 249 252 256 258 260 263 264 261 252 247 249 254 260
177 175 175 177 185 201 220 236 243 249 255 259 262 266 268 266 267 268 268 269 268 265 265 266 261 255 251 249 247 247 248 250 250 248 252 259 258 255 256 248 245 247 261
175 175 177 184 196 214 231 244 253 254 258 262 262 262 265 264 265 263 261 262 263 267 266 260 259 255 250 248 246 244 245 244 237 234 238 246 254 257 252 245 243 248 262
176 179 186 194 207 227 244 255 261 265 265 265 262 260 261 263 262 260 258 258 259 264 268 268 262 253 247 245 244 244 243 236 228 231 239 249 257 260 259 250 248 256 262
183 188 193 203 221 236 246 259 265 266 269 272 268 260 258 260 263 264 263 260 258 260 261 263 263 256 251 249 248 246 240 233 235 242 250 251 255 256 259 261 262 266 270
194 198 207 224 237 246 253 260 269 276 277 272 269 268 262 261 261 262 263 265 265 259 258 259 261 259 259 259 254 246 237 241 246 248 251 255 258 260 261 264 266 267 268
200 208 222 234 248 252 253 258 266 274 278 278 273 268 266 265 261 260 259 260 264 264 259 259 262 263 261 256 249 246 248 250 252 254 258 261 262 263 265 266 264 264 266
200 206 214 215 231 250 257 260 264 270 275 274 271 268 266 265 264 263 264 264 261 263 267 265 264 262 257 251 249 252 254 255 257 260 260 261 264 265 265 266 268 267 266
199 197 207 220 241 259 265 268 272 275 275 275 275 275 273 271 268 266 265 266 268 267 265 265 265 264 260 255 255 255 257 259 259 260 262 263 265 265 266 266 266 266 267
191 201 217 235 236 251 263 272 280 282 282 282 282 281 279 276 275 273 271 269 268 267 268 268 265 264 263 260 257 256 257 259 262 263 264 265 267 268 268 266 267 268 267
190 204 209 214 217 234 258 277 291 288 290 292 291 289 286 284 281 278 276 273 273 273 270 269 268 268 267 265 261 259 260 261 263 264 266 266 266 268 268 266 265 268 269
188 192 194 195 203 232 281 303 298 302 305 306 304 300 297 295 292 290 287 284 281 280 278 276 274 273 272 269 264 261 261 262 265 267 268 269 268 265 264 264 264 265 272
180 184 179 175 189 248 308 314 309 311 313 314 314 310 308 306 303 300 296 296 294 290 287 286 287 284 280 278 275 270 266 266 266 269 271 272 273 270 262 258 260 264 266
177 170 168 157 183 313 332 328 322 321 323 324 320 316 315 315 315 312 312 310 303 299 296 295 297 296 292 287 288 285 278 274 272 275 279 280 280 280 276 264 258 259 259
167 164 147 119 80 17 7 358 349 336 332 330 323 316 318 316 317 320 324 322 311 303 301 305 306 306 306 302 294 288 284 280 278 282 283 284 282 279 278 269 264 259 254
155 147 132 109 67 36 21 9 358 348 340 336 327 327 328 326 326 326 325 320 312 306 304 301 304 302 308 309 305 301 293 286 278 278 281 284 283 282 278 280 270 265 258
149 144 134 92 55 36 29 17 8 1 355 347 340 338 337 334 333 334 324 320 314 310 305 299 288 294 299 301 307 307 303 304 302 286 273 281 284 282 273 273 275 273 269